Location: Newark
(44.6419°N, 3.3467°E)
Time: 22:07:19
(UTC+00:00)

ISS - Visible Passes

Search period start: 17 November 2019 00:00
Search period end: 27 November 2019 00:00
Orbit: 412 x 421 km, 51.6° (Epoch: 18 November)

Date Brightness Start Highest point End Pass type
(mag) Time Alt. Az. Time Alt. Az. Time Alt. Az.
21 Nov -2.0 18:14:16 10° SSW 18:16:02 24° S 18:16:02 24° S visible
22 Nov -2.1 17:26:29 10° S 17:29:02 20° SE 17:29:52 19° ESE visible
22 Nov -0.6 19:02:10 10° WSW 19:02:47 14° WSW 19:02:47 14° WSW visible
23 Nov -1.4 16:39:20 10° SSE 16:40:48 12° SE 16:42:17 10° ESE visible
23 Nov -3.3 18:13:42 10° SW 18:16:31 60° SW 18:16:31 60° SW visible
24 Nov -3.4 17:25:24 10° SW 17:28:39 51° SE 17:30:11 27° E visible
24 Nov -0.6 19:02:22 10° W 19:03:05 15° W 19:03:05 15° W visible
25 Nov -2.6 16:37:18 10° SSW 16:40:17 31° SE 16:43:18 10° ENE visible
25 Nov -2.9 18:13:41 10° W 18:16:40 45° NW 18:16:40 45° NW visible
26 Nov -3.6 17:25:05 10° WSW 17:28:25 68° NNW 17:30:11 25° NE visible
26 Nov -0.5 19:02:42 10° WNW 19:03:05 12° WNW 19:03:05 12° WNW visible
